When you browse on this site, cookies collect data to enhance your experience and personalize the content and advertising you see.
Visit our Privacy Policy to learn more. By continuing to use the site, you agree to this use of cookies and data.
  • In Hungary
  • List of Countries
  • For 7 days
  • Water Temperature
  • Satellite Maps
  • Weather Map
  • News
  • Weather Widgets
  • user-avatar
    Login

    Hourly Weather Podgajcy

    Today, 16 January, Wednesday

    Time Temperature Precipitation Wind Pressure Humidity
    00:00 -7°C° 0.1 mm 4 mps 719 mmHg 88%
    01:00 -5°C° 0.1 mm 4 mps 719 mmHg 90%
    02:00 -6°C° 0.1 mm 5 mps 718 mmHg 91%
    03:00 -5°C° 0.6 mm 6 mps 718 mmHg 90%
    04:00 -5°C° 0.6 mm 8 mps 717 mmHg 88%
    05:00 -3°C° 0.6 mm 9 mps 716 mmHg 87%
    06:00 -3°C° 0.6 mm 9 mps 716 mmHg 89%
    07:00 -3°C° 0.6 mm 10 mps 716 mmHg 90%
    08:00 -2°C° 0.6 mm 10 mps 717 mmHg 92%
    09:00 -3°C° 0.2 mm 10 mps 718 mmHg 91%
    10:00 -3°C° 0.2 mm 9 mps 719 mmHg 91%
    11:00 -3°C° 0.2 mm 9 mps 720 mmHg 90%
    12:00 -2°C° 0.1 mm 8 mps 721 mmHg 90%
    13:00 -2°C° 0.1 mm 7 mps 721 mmHg 91%
    14:00 -2°C° 0.1 mm 6 mps 722 mmHg 91%
    15:00 -1°C° 0 mm 5 mps 722 mmHg 92%
    16:00 -2°C° 0 mm 4 mps 723 mmHg 94%
    17:00 -1°C° 0 mm 3 mps 723 mmHg 95%
    18:00 -1°C° 0.1 mm 3 mps 724 mmHg 96%
    19:00 -1°C° 0.1 mm 3 mps 724 mmHg 96%
    20:00 +1°C° 0.1 mm 2 mps 724 mmHg 97%
    21:00 +1°C° 0.1 mm 2 mps 724 mmHg 96%
    22:00 0°C° 0.1 mm 3 mps 725 mmHg 96%
    23:00 0°C° 0.1 mm 3 mps 725 mmHg 95%

    Tomorrow, 17 January, Thursday

    Time Temperature Precipitation Wind Pressure Humidity
    00:00 0°C° 0 mm 3 mps 725 mmHg 94%
    01:00 -1°C° 0 mm 2 mps 725 mmHg 93%
    02:00 -1°C° 0 mm 2 mps 725 mmHg 91%
    03:00 -1°C° 0 mm 2 mps 724 mmHg 90%
    04:00 -2°C° 0 mm 2 mps 724 mmHg 89%
    05:00 -2°C° 0 mm 3 mps 724 mmHg 88%
    06:00 -2°C° 0 mm 3 mps 724 mmHg 87%
    07:00 -2°C° 0 mm 3 mps 723 mmHg 87%
    08:00 -2°C° 0 mm 3 mps 723 mmHg 86%
    09:00 -2°C° 0 mm 3 mps 723 mmHg 87%
    10:00 -1°C° 0 mm 3 mps 723 mmHg 87%
    11:00 0°C° 0 mm 3 mps 723 mmHg 88%
    12:00 0°C° 0 mm 3 mps 723 mmHg 90%
    13:00 +1°C° 0 mm 3 mps 723 mmHg 92%
    14:00 +1°C° 0 mm 3 mps 723 mmHg 94%
    15:00 +1°C° 0 mm 3 mps 723 mmHg 90%
    16:00 +1°C° 0 mm 3 mps 723 mmHg 85%
    17:00 +1°C° 0 mm 3 mps 723 mmHg 80%
    18:00 0°C° 0 mm 3 mps 723 mmHg 80%
    19:00 0°C° 0 mm 3 mps 723 mmHg 79%
    20:00 0°C° 0 mm 3 mps 722 mmHg 79%
    21:00 0°C° 0 mm 3 mps 723 mmHg 78%
    22:00 0°C° 0 mm 4 mps 723 mmHg 77%
    23:00 0°C° 0 mm 5 mps 723 mmHg 77%

    Day after tomorrow, 18 January, Friday

    Time Temperature Precipitation Wind Pressure Humidity
    00:00 0°C° 0 mm 4 mps 723 mmHg 79%
    01:00 0°C° 0 mm 4 mps 722 mmHg 81%
    02:00 +1°C° 0 mm 3 mps 722 mmHg 84%
    03:00 0°C° 0.1 mm 3 mps 722 mmHg 85%
    04:00 0°C° 0.1 mm 3 mps 722 mmHg 86%
    05:00 0°C° 0.1 mm 3 mps 722 mmHg 87%
    06:00 0°C° 0.1 mm 3 mps 723 mmHg 87%
    07:00 0°C° 0.1 mm 3 mps 723 mmHg 87%
    08:00 -1°C° 0.1 mm 4 mps 724 mmHg 87%
    09:00 -1°C° 0.5 mm 4 mps 724 mmHg 87%
    10:00 -1°C° 0.5 mm 5 mps 725 mmHg 88%
    11:00 -3°C° 0.5 mm 6 mps 725 mmHg 89%
    12:00 -3°C° 0.2 mm 6 mps 726 mmHg 87%
    13:00 -3°C° 0.2 mm 6 mps 726 mmHg 85%
    14:00 -4°C° 0.2 mm 6 mps 727 mmHg 83%
    15:00 -4°C° 0 mm 5 mps 728 mmHg 83%
    16:00 -5°C° 0 mm 5 mps 728 mmHg 84%
    17:00 -4°C° 0 mm 4 mps 729 mmHg 84%
    18:00 -5°C° 0 mm 4 mps 730 mmHg 85%
    19:00 -5°C° 0 mm 4 mps 730 mmHg 85%
    20:00 -7°C° 0 mm 4 mps 731 mmHg 86%
    21:00 -7°C° 0 mm 4 mps 731 mmHg 87%
    22:00 -8°C° 0 mm 4 mps 732 mmHg 88%
    23:00 -7°C° 0 mm 3 mps 732 mmHg 89%

    19 January, Saturday

    Time Temperature Precipitation Wind Pressure Humidity
    00:00 -7°C° 0 mm 3 mps 733 mmHg 89%
    01:00 -8°C° 0 mm 3 mps 733 mmHg 90%
    02:00 -7°C° 0 mm 2 mps 733 mmHg 91%
    03:00 -7°C° 0 mm 2 mps 733 mmHg 91%
    04:00 -7°C° 0 mm 2 mps 733 mmHg 90%
    05:00 -7°C° 0 mm 2 mps 733 mmHg 90%
    06:00 -6°C° 0 mm 1 mps 733 mmHg 90%
    07:00 -6°C° 0 mm 1 mps 733 mmHg 89%
    08:00 -6°C° 0 mm 1 mps 733 mmHg 88%
    09:00 -4°C° 0 mm 1 mps 733 mmHg 88%
    10:00 -4°C° 0 mm 1 mps 733 mmHg 87%
    11:00 -5°C° 0 mm 2 mps 733 mmHg 86%
    12:00 -5°C° 0 mm 2 mps 733 mmHg 86%
    13:00 -4°C° 0 mm 2 mps 732 mmHg 86%
    14:00 -4°C° 0 mm 2 mps 732 mmHg 85%
    15:00 -5°C° 0 mm 2 mps 732 mmHg 87%
    16:00 -6°C° 0 mm 2 mps 731 mmHg 89%
    17:00 -6°C° 0 mm 2 mps 731 mmHg 91%
    18:00 -7°C° 0 mm 2 mps 731 mmHg 91%
    19:00 -7°C° 0 mm 2 mps 731 mmHg 92%
    20:00 -7°C° 0 mm 2 mps 731 mmHg 93%
    21:00 -7°C° 0 mm 2 mps 731 mmHg 93%
    22:00 -7°C° 0 mm 2 mps 731 mmHg 94%
    23:00 -7°C° 0 mm 2 mps 731 mmHg 95%

    20 January, Sunday

    Time Temperature Precipitation Wind Pressure Humidity
    00:00 -6°C° 0 mm 1 mps 730 mmHg 95%
    01:00 -6°C° 0 mm 1 mps 730 mmHg 95%
    02:00 -4°C° 0 mm 1 mps 730 mmHg 96%
    03:00 -4°C° 0 mm 1 mps 730 mmHg 96%
    04:00 -4°C° 0 mm 1 mps 729 mmHg 96%
    05:00 -4°C° 0 mm 1 mps 729 mmHg 96%
    06:00 -4°C° 0 mm 1 mps 729 mmHg 95%
    07:00 -4°C° 0 mm 1 mps 729 mmHg 95%
    08:00 -4°C° 0 mm 1 mps 729 mmHg 95%
    09:00 -4°C° 0 mm 1 mps 729 mmHg 94%
    10:00 -3°C° 0 mm 1 mps 729 mmHg 92%
    11:00 -3°C° 0 mm 1 mps 730 mmHg 91%
    12:00 -3°C° 0 mm 1 mps 729 mmHg 90%
    13:00 -4°C° 0 mm 2 mps 729 mmHg 90%
    14:00 -4°C° 0 mm 2 mps 729 mmHg 89%
    15:00 -5°C° 0 mm 2 mps 729 mmHg 90%
    16:00 -6°C° 0 mm 2 mps 730 mmHg 90%
    17:00 -7°C° 0 mm 2 mps 730 mmHg 90%
    18:00 -7°C° 0 mm 3 mps 730 mmHg 90%
    19:00 -7°C° 0 mm 3 mps 731 mmHg 91%
    20:00 -7°C° 0 mm 4 mps 731 mmHg 91%
    21:00 -7°C° 0 mm 4 mps 731 mmHg 90%
    22:00 -8°C° 0 mm 4 mps 732 mmHg 88%
    23:00 -8°C° 0 mm 4 mps 732 mmHg 87%

    21 January, Monday

    Time Temperature Precipitation Wind Pressure Humidity
    00:00 -9°C° 0 mm 4 mps 732 mmHg 89%
    01:00 -9°C° 0 mm 4 mps 732 mmHg 91%
    02:00 -9°C° 0 mm 4 mps 733 mmHg 93%
    03:00 -10°C° 0 mm 4 mps 733 mmHg 93%
    04:00 -10°C° 0 mm 4 mps 733 mmHg 93%
    05:00 -10°C° 0 mm 4 mps 734 mmHg 93%
    06:00 -10°C° 0 mm 4 mps 734 mmHg 93%
    07:00 -10°C° 0 mm 4 mps 735 mmHg 94%
    08:00 -10°C° 0 mm 4 mps 735 mmHg 94%
    09:00 -10°C° 0 mm 5 mps 735 mmHg 93%
    10:00 -10°C° 0 mm 5 mps 736 mmHg 92%
    11:00 -8°C° 0 mm 5 mps 736 mmHg 90%
    12:00 -9°C° 0 mm 6 mps 736 mmHg 88%
    13:00 -9°C° 0 mm 6 mps 737 mmHg 86%
    14:00 -8°C° 0 mm 6 mps 737 mmHg 84%
    15:00 -7°C° 0 mm 5 mps 737 mmHg 85%
    16:00 -8°C° 0 mm 5 mps 737 mmHg 85%
    17:00 -8°C° 0 mm 4 mps 738 mmHg 86%
    18:00 -8°C° 0 mm 3 mps 738 mmHg 88%
    19:00 -9°C° 0 mm 3 mps 738 mmHg 90%
    20:00 -8°C° 0 mm 2 mps 738 mmHg 92%
    21:00 -9°C° 0 mm 2 mps 738 mmHg 93%
    22:00 -8°C° 0 mm 1 mps 738 mmHg 93%
    23:00 -8°C° 0 mm 1 mps 739 mmHg 94%
    Show more